Location: Laguna de la Cañada del Gallo
(40.3974°N, 5.2096°W)
Time: 12:09:09
(UTC+00:00)

Daily predictions for brighter satellites

Satellite Brightness Start Highest point End
(mag) Time Altitude Azimuth Time Altitude Azimuth Time Altitude Azimuth
H-2A ROCKET BODY 4.4 19:14:39 10° SW 19:18:50 23° S 19:29:20 10° SE
ADEOS 3.9 19:23:34 10° S 19:28:45 73° WSW 19:33:59 10° NNW
Okean O Rocket 2.9 19:25:49 10° ESE 19:29:12 23° ENE 19:32:38 10° NNE
USA 267 3.6 19:23:48 10° NE 19:30:20 73° NW 19:36:50 10° WSW
Cosmos 1782 Rocket 3.5 19:27:45 10° S 19:32:06 76° E 19:36:31 10° N
Atlas Centaur 2 3.6 19:29:36 10° SSW 19:33:28 18° SSE 19:36:49 10° SE
CZ-4 R/B 1.4 19:30:13 10° SSE 19:34:04 56° ENE 19:37:52 10° N
CZ-4B R/B 3.1 19:39:39 10° S 19:43:18 63° WSW 19:46:51 10° NNW
Resurs 01 Rocket 2.4 19:39:54 10° SE 19:43:50 33° ENE 19:47:49 10° N
SJ 16-02 1.7 19:40:18 10° NNW 19:44:35 67° WSW 19:48:52 10° S
NOSS 3-1 (A) 3.0 19:43:43 10° SSW 19:48:23 59° ESE 19:53:49 10° NE
DELTA 2 DEB (DPAF) 4.2 19:44:35 10° NNE 19:48:42 49° E 19:52:47 10° S
Cosmos 1300 Rocket 3.6 19:46:09 10° S 19:50:31 85° W 19:54:56 10° N
Tiangong -1.6 19:52:12 10° SW 19:55:05 38° SSE 19:57:17 15° E
USA 229 DEB 4.3 19:52:35 10° SSE 19:57:24 26° ESE 20:02:30 10° ENE
USA 229 4.3 19:52:42 10° SSE 19:57:29 25° ESE 20:02:35 10° ENE
Milstar 3 4.4 19:51:28 10° SW 19:59:41 42° SSE 20:13:03 12° E
Cosmos 2151 Rocket 4.4 19:56:25 10° SSE 20:00:12 29° E 20:04:02 10° NNE
USA 234 3.5 19:58:35 13° ESE 20:04:21 60° NE 20:10:45 10° NW
USA 281 3.8 19:59:01 13° ESE 20:04:22 40° ENE 20:10:24 10° N
NOSS 3-1 (C) 4.3 20:04:19 10° WSW 20:08:57 43° NW 20:14:25 10° NNE
Cosmos 2227 Rocket 4.3 20:07:40 10° NNE 20:09:23 11° NE 20:11:05 10° ENE
CSL-04 Debris 4.1 20:05:01 10° SSE 20:10:25 75° ENE 20:15:54 10° N
SJ-6B 4.2 20:09:49 10° SSW 20:13:31 39° W 20:17:16 10° NNW
SL-4 R/B 4.2 20:12:37 10° NNW 20:14:36 14° N 20:16:32 10° NE
Cosmos 1697 Rocket 4.4 20:18:57 14° E 20:18:57 14° E 20:20:44 10° ENE
Cosmos 371 Rocket 4.0 20:14:24 10° N 20:18:50 36° ENE 20:21:07 23° ESE
CSL-04 Rocket 3.7 20:13:22 10° SSE 20:18:52 81° ENE 20:24:22 10° NNW
ATLAS 3B R/B 3.0 20:14:57 10° SW 20:21:55 76° NW 20:29:29 10° NNE
Okean 2 Rocket 3.3 20:17:50 10° SSE 20:22:10 48° E 20:26:30 10° NNE
COSMOS 2455 4.3 20:20:19 10° N 20:24:58 22° NE 20:27:59 16° E
SPOT 5 3.9 20:26:04 23° ESE 20:28:21 33° ENE 20:33:01 10° N
BlueWalker 3 2.4 20:31:34 10° WSW 20:35:20 61° NW 20:39:08 10° NE
CZ-4C R/B 4.2 20:32:00 10° NNW 20:37:47 26° NE 20:42:37 16° E
Cosmos 2297 Rocket 3.2 20:33:37 10° N 20:38:37 31° ENE 20:40:35 25° E
PSLV R/B 4.4 20:37:05 14° S 20:40:03 50° W 20:43:44 10° NNW
Cosmos 1656 3.6 20:34:57 10° S 20:40:27 62° ESE 20:45:55 10° NNE
Terra 3.2 20:40:08 21° ENE 20:40:41 21° ENE 20:44:13 10° NNE
Cosmos 1503 Rocket 4.1 20:35:42 10° NNW 20:41:03 66° ENE 20:43:37 31° SE
CARTOSAT-1 4.0 20:39:30 15° S 20:42:58 60° W 20:47:12 10° NNW
Cosmos 1354 Rocket 4.3 20:38:46 10° N 20:43:59 52° ENE 20:45:57 34° ESE
Okean 1 Rocket 3.2 20:44:00 35° SSE 20:45:30 53° E 20:49:51 10° NNE
Sich 1 Rocket 3.5 20:41:29 10° S 20:45:49 89° W 20:50:17 10° N
ATLAS 5 CENTAUR R/B 4.2 20:44:07 10° WNW 20:46:13 15° NW 20:48:26 10° N
Iridium 4 Rocket 3.9 20:44:01 29° SE 20:46:32 51° E 20:52:06 10° NNE
Okean-O 2.5 20:48:37 34° SSE 20:50:29 85° ENE 20:54:55 10° NNW
Cosmos 1241 Rocket 4.5 20:44:37 10° NNW 20:50:56 84° WSW 20:54:23 29° SSE
Ariane Rocket 3.9 20:56:30 29° ENE 20:57:00 30° ENE 21:01:20 10° N
Cosmos 1763 Rocket 3.8 20:57:45 41° E 20:57:45 41° E 21:02:25 10° NNE
CZ-4C R/B 3.4 20:54:54 10° N 20:58:15 58° WNW 20:59:55 26° SW
Genesis I 3.3 20:57:20 10° NNW 21:00:43 53° NE 21:00:43 53° NE
Cosmos 44 3.4 20:56:49 10° SSW 21:02:13 80° ESE 21:07:36 10° NE
Cosmos 1932 4.4 20:57:08 10° NNW 21:03:23 83° WSW 21:05:57 38° SSE
Cosmos 2263 Rocket 4.3 21:02:55 10° NNE 21:04:41 11° NE 21:06:06 10° ENE
Okean O Rocket 3.2 21:01:42 11° SSW 21:05:18 31° W 21:09:13 10° NNW
Cosmos 540 Rocket 4.2 21:18:44 36° ENE 21:18:44 36° ENE 21:22:11 10° NNE
Cosmos 1605 Rocket 4.0 21:11:14 10° N 21:17:35 65° E 21:19:09 49° SE
Resurs 01 Rocket 3.8 21:16:56 10° SW 21:20:19 21° W 21:23:43 10° NW
Atlas Centaur 2 3.5 21:17:27 10° SW 21:19:37 19° SSW 21:19:37 19° SSW
Cosmos 1536 Rocket 4.5 21:17:11 10° NNW 21:21:25 45° W 21:22:56 32° SW
IRS-P2 Rocket 4.4 21:24:02 65° SE 21:24:47 80° ENE 21:30:06 10° NNW
IRS-1C Rocket 4.1 21:23:37 51° S 21:24:58 76° WSW 21:30:16 10° NNW
Celestis-02/Orion 38 4.4 21:29:56 70° S 21:30:30 82° WSW 21:35:37 10° NNW
ERS-1 Rocket 2.8 21:31:22 79° ESE 21:31:33 81° ENE 21:36:34 10° N
Tiangong 0.5 21:28:32 10° W 21:29:20 17° W 21:29:20 17° W
SPOT 3 Rocket 3.6 21:35:46 60° ENE 21:35:46 60° ENE 21:40:42 10° N
CENTAUR R/B 4.2 21:33:54 10° NNW 21:41:24 36° NE 21:44:48 28° E
ATLAS CENTAUR R/B 3.4 21:43:24 10° N 21:45:04 19° NNE 21:45:04 19° NNE
USA 234 4.0 21:45:56 35° SSW 21:47:29 40° SW 21:53:33 10° WNW
USA 229 DEB 4.1 21:41:48 10° SW 21:47:45 55° NW 21:54:17 10° NNE
USA 229 4.1 21:41:52 10° SW 21:47:51 56° NW 21:54:24 10° NNE
USA 281 4.2 21:45:54 26° SSW 21:48:47 39° WSW 21:54:53 10° NW
Cosmos 1727 Rocket 3.9 21:49:08 68° E 21:49:08 68° E 21:55:20 10° NNE
Cosmos 1980 Rocket 3.7 21:55:14 24° NE 21:55:14 24° NE 21:57:32 10° NE
SL-4 R/B 4.1 21:51:14 10° NW 21:52:47 20° NNW 21:52:47 20° NNW
Cosmos 2227 Rocket 2.3 21:48:53 10° NNW 21:54:10 64° NE 21:54:10 64° NE
Cosmos 2100 Rocket 4.5 21:48:42 10° N 21:54:16 46° ENE 21:54:16 46° ENE
Cosmos 1697 Rocket 2.8 22:00:33 70° W 22:00:56 73° WNW 22:06:38 10° NNE
SPOT 5 4.4 22:05:13 29° WSW 22:06:16 31° W 22:10:56 10° NW
COSMOS 2455 3.0 22:05:26 10° NNW 22:11:08 69° W 22:11:08 69° W
Spot 2 Rocket 4.3 22:16:33 46° WNW 22:16:33 46° WNW 22:20:47 10° NNW
Cosmos 1898 Rocket 4.3 22:12:33 10° NNW 22:16:18 45° N 22:16:18 45° N
Terra 3.1 22:18:50 36° WNW 22:18:50 36° WNW 22:22:26 10° NNW
Cosmos 2297 Rocket 3.2 22:17:32 10° NW 22:22:24 37° W 22:22:24 37° W
CZ-4C R/B 2.9 22:19:39 10° NW 22:27:10 88° ENE 22:27:43 80° SE
Cosmos 1459 Rocket 4.3 22:31:41 10° N 22:36:35 60° N 22:36:35 60° N
Cosmos 2219 3.9 22:32:22 10° NNW 22:36:27 49° NNW 22:36:27 49° NNW
Cosmos 2263 Rocket 3.2 22:44:06 10° NNW 22:47:47 41° N 22:47:47 41° N
NOSS 3-2 (A) 4.2 22:59:58 10° NNW 23:07:20 68° NE 23:07:20 68° NE
SL-16 R/B 4.3 23:22:57 19° NE 23:22:57 19° NE 23:24:35 10° NNE
CENTAUR R/B 3.4 23:24:17 10° NW 23:31:56 68° W 23:31:56 68° W
Cosmos 1844 Rocket 4.5 23:29:06 10° N 23:32:09 26° NNE 23:32:09 26° NNE
Cosmos 1980 Rocket 3.9 23:36:55 27° NW 23:36:55 27° NW 23:41:07 10° N
